Location: Stuttgart
(48.7824°N, 9.1964°E)
Time: 23:47:22
(UTC+02:00)

ISS - Visible Passes

Search period start: 20 May 2019 00:00
Search period end: 30 May 2019 00:00
Orbit: 408 x 410 km, 51.6° (Epoch: 21 May)

Date Brightness Start Highest point End Pass type
(mag) Time Alt. Az. Time Alt. Az. Time Alt. Az.
20 May -2.9 01:15:27 10° WNW 01:18:41 50° N 01:21:56 10° E visible
20 May -4.0 02:52:06 10° WNW 02:55:25 77° SSW 02:58:43 10° ESE visible
20 May -2.2 04:29:22 10° W 04:31:34 17° SW 04:33:46 10° S visible
20 May -3.9 22:47:38 10° WSW 22:50:56 87° SSE 22:54:15 10° ENE visible
21 May -2.9 00:24:28 10° WNW 00:27:42 49° N 00:30:56 10° ENE visible
21 May -3.8 02:01:12 10° WNW 02:04:31 78° NNE 02:04:32 78° NNE visible
21 May -3.8 21:56:48 10° SW 22:00:03 60° SSE 22:03:20 10° ENE visible
21 May -3.0 23:33:27 10° W 23:36:41 53° N 23:39:57 10° ENE visible
22 May -3.3 01:10:16 10° WNW 01:13:33 61° NNE 01:14:15 46° ENE visible
22 May -1.1 02:46:56 10° WNW 02:46:56 10° WNW 02:46:56 10° WNW visible
22 May -3.3 22:42:25 10° W 22:45:42 62° NNW 22:48:59 10° ENE visible
23 May -3.0 00:19:18 10° WNW 00:22:33 52° N 00:24:34 20° ENE visible
23 May -2.0 01:55:56 10° WNW 01:57:16 22° WNW 01:57:16 22° WNW visible
23 May -3.7 21:51:26 10° WSW 21:54:43 80° NNW 21:58:03 10° ENE visible
23 May -2.9 23:28:18 10° WNW 23:31:32 49° N 23:34:46 10° ENE visible
24 May -3.5 01:04:58 10° WNW 01:07:45 60° WNW 01:07:45 60° WNW visible
24 May -2.9 22:37:15 10° W 22:40:29 50° N 22:43:44 10° ENE visible
25 May -3.6 00:14:01 10° WNW 00:17:19 68° NNE 00:18:18 41° E visible
25 May -1.1 01:50:44 10° W 01:51:00 12° W 01:51:00 12° W visible
25 May -3.2 23:23:02 10° WNW 23:26:19 56° N 23:28:53 15° E visible
26 May -2.5 00:59:40 10° WNW 01:01:36 30° W 01:01:36 30° W visible
26 May -2.9 22:32:01 10° WNW 22:35:15 50° N 22:38:30 10° E visible
27 May -4.0 00:08:39 10° WNW 00:11:58 76° SSW 00:12:13 70° SSE visible
27 May -3.8 23:17:40 10° WNW 23:20:59 78° NNE 23:22:52 23° ESE visible
28 May -1.6 00:54:30 10° W 00:55:35 17° W 00:55:35 17° W visible
28 May -3.3 22:26:39 10° WNW 22:29:56 61° NNE 22:33:13 10° E visible
29 May -3.2 00:03:19 10° WNW 00:06:14 39° SW 00:06:14 39° SW visible
29 May -3.8 23:12:14 10° WNW 23:15:31 62° SSW 23:16:55 30° SE visible
